DW3384 Weather Reports


time (UTC)temp
C
wind
direction
speed
KPH
gust
KPH
rain 1hr
cm
rain 24hr
cm
rain mn
cm
humidity
%
barometer
mb
20260505200034 13 339 9.7 17.7 0.00 0.00 0.00 49 1003.7
20260505194526 13 321 4.8 17.7 0.00 0.00 0.00 49 1003.8
20260505193025 13 347 3.2 14.5 0.00 0.00 0.00 50 1003.6
20260505191525 13 44 8.0 20.9 0.00 0.00 0.00 49 1003.5
20260505190024 13 42 6.4 11.3 0.00 0.00 0.00 48 1003.4
20260505184525 13 23 6.4 17.7 0.00 0.00 0.00 49 1003.4
20260505183022 13 9 14.5 22.5 0.00 0.00 0.00 50 1003.7
20260505181521 13 58 9.7 19.3 0.00 0.00 0.00 50 1003.5
20260505180019 13 86 4.8 16.1 0.00 0.00 0.00 50 1003.6
20260505174518 13 37 6.4 14.5 0.00 0.00 0.00 49 1003.5
20260505173035 13 40 4.8 24.1 0.00 0.00 0.00 51 1003.3
20260505171518 13 34 3.2 17.7 0.00 0.00 0.00 50 1003.4
20260505170022 13 54 4.8 17.7 0.00 0.00 0.00 50 1003.1
20260505164532 12 351 8.0 24.1 0.00 0.00 0.00 51 1002.9
20260505163014 12 27 6.4 17.7 0.00 0.00 0.00 52 1002.7
20260505161510 12 22 4.8 22.5 0.00 0.00 0.00 54 1002.5
20260505153006 12 327 12.9 33.8 0.00 0.00 0.00 55 1001.6
20260505151605 12 60 4.8 17.7 0.00 0.00 0.00 56 1001.4
20260505124537 12 30 9.7 22.5 0.00 0.00 0.00 51 998.8
20260505123029 13 355 12.9 32.2 0.00 0.00 0.00 51 998.3
20260505121530 13 317 6.4 25.7 0.00 0.00 0.00 52 998.1
20260505120024 13 360 14.5 32.2 0.00 0.00 0.00 50 997.5
20260505114532 13 336 12.9 35.4 0.00 0.00 0.00 51 997.2
20260505113017 14 330 17.7 33.8 0.00 0.00 0.00 51 997.1
20260505111513 15 42 6.4 27.4 0.00 0.00 0.00 53 997.0
20260505101603 15 355 11.3 24.1 0.00 0.00 0.00 69 995.0
20260505100055 15 355 12.9 27.4 0.00 0.00 0.00 69 994.2
20260505094553 16 11 8.0 20.9 0.00 0.00 0.00 69 993.9
20260505093046 17 328 8.0 16.1 0.00 0.00 0.00 59 993.4
20260505091553 18 338 1.6 9.7 0.00 0.00 0.00 38 993.1
20260505090051 20 304 4.8 14.5 0.00 0.00 0.00 24 992.6
20260505084537 21 276 9.7 17.7 0.00 0.00 0.00 23 992.1
20260505083040 23 322 11.3 24.1 0.00 0.00 0.00 19 992.0
20260505081545 23 262 14.5 25.7 0.00 0.00 0.00 21 991.6
20260505080037 23 263 14.5 25.7 0.00 0.00 0.00 21 991.3
20260505074523 23 248 11.3 19.3 0.00 0.00 0.00 21 991.3
20260505073021 23 257 11.3 20.9 0.00 0.00 0.00 21 991.6
20260505071525 24 272 11.3 22.5 0.00 0.00 0.00 20 991.8
20260505070023 23 252 12.9 22.5 0.00 0.00 0.00 20 991.8
20260505064516 23 254 11.3 20.9 0.00 0.00 0.00 20 991.9
20260505063015 23 279 9.7 19.3 0.00 0.00 0.00 21 992.0
20260505061523 23 270 11.3 22.5 0.00 0.00 0.00 21 992.1
20260505060011 23 267 9.7 20.9 0.00 0.00 0.00 20 992.2
20260505054513 23 221 8.0 16.1 0.00 0.00 0.00 19 992.2
20260505053004 23 239 12.9 20.9 0.00 0.00 0.00 20 992.4
20260505051503 23 233 6.4 14.5 0.00 0.00 0.00 20 992.4
20260505041559 22 228 4.8 14.5 0.00 0.00 0.00 26 992.7
20260505040100 21 248 3.2 4.8 0.00 0.00 0.00 28 992.7
20260505034558 22 232 1.6 4.8 0.00 0.00 0.00 27 992.8
20260505033058 23 230 1.6 3.2 0.00 0.00 0.00 24 992.8
20260505031605 24 244 1.6 4.8 0.00 0.00 0.00 23 992.7
20260505030057 25 248 1.6 4.8 0.00 0.00 0.00 22 992.6
20260505024609 25 184 3.2 6.4 0.00 0.00 0.00 21 992.3
20260505023056 26 184 1.6 6.4 0.00 0.00 0.00 20 992.3
20260505021611 26 206 1.6 4.8 0.00 0.00 0.00 20 992.3
20260505020054 26 209 1.6 6.4 0.00 0.00 0.00 20 992.1
20260505014554 27 228 1.6 4.8 0.00 0.00 0.00 19 992.1
20260505013054 27 244 1.6 4.8 0.00 0.00 0.00 18 992.1
20260505011557 28 225 3.2 9.7 0.00 0.00 0.00 18 991.9
20260505010052 29 269 4.8 11.3 0.00 0.00 0.00 17 991.9
20260505004551 29 285 8.0 16.1 0.00 0.00 0.00 16 992.1
20260505003049 30 271 8.0 19.3 0.00 0.00 0.00 16 992.1
20260505001548 30 264 12.9 25.7 0.00 0.00 0.00 16 992.3
20260505000046 30 260 14.5 25.7 0.00 0.00 0.00 15 992.4
20260504234543 30 246 20.9 32.2 0.00 0.00 0.00 15 992.7
20260504233056 30 300 17.7 32.2 0.00 0.00 0.00 15 992.7
20260504231542 30 257 16.1 32.2 0.00 0.00 0.00 15 992.7
20260504230043 31 270 20.9 37.0 0.00 0.00 0.00 15 992.9
20260504224540 31 260 20.9 41.8 0.00 0.00 0.00 14 993.1
20260504223041 31 259 22.5 33.8 0.00 0.00 0.00 14 992.9
20260504221545 31 273 24.1 35.4 0.00 0.00 0.00 13 993.0
20260504220051 31 261 16.1 37.0 0.00 0.00 0.00 14 993.2
20260504214537 31 265 14.5 32.2 0.00 0.00 0.00 15 993.2
20260504213034 31 250 17.7 41.8 0.00 0.00 0.00 15 993.5
20260504211532 31 292 17.7 30.6 0.00 0.00 0.00 16 993.3
20260504210031 32 306 22.5 41.8 0.00 0.00 0.00 15 993.7
20260504204541 32 246 9.7 32.2 0.00 0.00 0.00 16 993.8
20260504203027 32 221 14.5 30.6 0.00 0.00 0.00 15 994.0
20260504201524 32 215 17.7 27.4 0.00 0.00 0.00 15 994.3